[[{"header":{"parameterUnit":"m.s-1","parameterCategory":1,"la1":30.2992,"la2":30.254,"lo1":-89.0895,"lo2":-89.0443,"dy":0.0025,"dx":0.0025,"nx":19,"ny":19,"refTime":"2026-03-21T21:00:00:Z","depth":0,"parameterNumber":2,"parameterNumberName":"U-component_of_WINDS"},"data":[0,0,0,4.4866,4.4872,4.5134,4.5135,4.5484,4.5487,0,0,0,0,0,0,0,0,0,0,0,4.4796,4.4799,4.4866,4.4873,4.5134,4.5135,4.5483,4.5487,0,0,0,0,0,0,0,0,0,0,0,4.4795,4.4798,4.4801,4.4874,4.5134,4.5135,4.5483,4.528,0,0,0,0,0,0,0,0,0,0,4.5024,4.4966,4.4797,4.4802,4.4875,4.5134,4.5135,4.527,4.5293,4.5371,0,4.5441,0,4.5469,4.5511,4.5512,0,0,0,4.4868,4.4948,4.5011,4.4802,4.4878,4.5133,4.5015,4.5283,4.5309,4.5401,4.5446,4.5458,4.5475,4.5514,4.5515,4.5974,4.5976,0,0,4.4853,4.4848,4.4993,4.5028,4.4987,4.5006,4.5023,4.5298,4.5348,4.5447,4.5466,4.5481,4.5516,4.5519,4.5971,4.5974,0,0,0,4.4815,4.4838,4.4895,4.5014,4.506,4.5014,4.5033,4.5335,4.5354,4.547,4.5485,4.5518,4.5522,4.5969,4.5972,4.6082,0,0,0,4.4806,4.4816,4.4889,4.4888,4.5055,4.5201,4.5064,4.5335,4.5366,4.5483,4.5518,4.5526,4.5966,4.5971,4.6073,4.6135,0,0,0,4.4777,4.4812,4.4852,4.4887,4.4999,4.5196,4.5231,4.5342,4.5376,4.5513,4.5527,4.5965,4.597,4.6066,4.6122,4.6252,0,0,0,4.4745,4.495,4.4854,4.5089,4.4997,4.5261,4.5229,4.5427,4.5558,4.552,4.5967,4.5972,4.6063,4.6115,4.6243,4.6358,4.6406,0,0,4.5,4.498,4.5118,4.504,4.532,4.5222,4.5518,4.5645,4.5665,4.587,4.5881,4.6076,4.6122,4.625,4.6677,4.6715,0,0,0,4.5197,4.5296,4.5372,4.5494,4.5593,4.5682,4.5763,4.5809,4.5983,4.5768,4.6159,4.6186,4.6261,4.6317,4.6349,4.6413,4.5998,4.5997,4.5997,4.5553,4.5563,4.5791,4.5832,4.5951,4.603,4.6127,4.6203,4.6182,4.6274,4.6335,4.6592,4.6657,4.6681,4.6748,4.6397,4.6398,4.6398,4.6398,4.5927,4.6067,4.603,4.6237,4.6247,4.6422,4.6505,4.6483,4.6648,4.6548,4.6616,4.6505,4.6722,4.6781,4.6407,4.6405,4.6404,4.6404,4.6403,4.616,4.6228,4.6279,4.6453,4.6587,4.6622,4.6779,4.6784,4.679,4.6856,4.6919,4.6917,4.6914,4.6885,4.6886,4.6887,4.6888,4.6889,4.6889,4.6381,4.6434,4.6565,4.6684,4.676,4.6862,4.6941,4.7017,4.7102,4.7093,4.7094,4.7062,4.6741,4.666,4.6903,4.6901,4.6899,4.6898,4.6897,4.6754,4.6669,4.6872,4.6949,4.7087,4.7217,4.7219,4.7373,4.7437,4.7514,4.7467,4.723,4.7211,4.7185,4.7118,4.7465,4.7465,4.7465,4.7465,4.695,4.6939,4.7145,4.7266,4.7386,4.7407,4.7635,4.7697,4.7748,4.7788,4.7738,4.7649,4.7623,4.7619,4.7584,4.7521,4.7963,4.7964,4.7964,4.7179,4.7179,4.7372,4.7418,4.7525,4.7617,4.783,4.7971,4.8012,4.7985,4.7818,4.7797,4.7653,4.7606,4.7575,4.7521,4.7406,0,0]},{"header":{"parameterUnit":"m.s-1","parameterCategory":1,"la1":30.2992,"la2":30.254,"lo1":-89.0895,"lo2":-89.0443,"dy":0.0025,"dx":0.0025,"nx":19,"ny":19,"refTime":"2026-03-21T21:00:00:Z","depth":0,"parameterNumber":3,"parameterNumberName":"V-component_of_WINDS"},"data":[0,0,0,3.9267,3.927,3.9421,3.9421,3.9611,3.9613,0,0,0,0,0,0,0,0,0,0,0,3.9222,3.9224,3.9266,3.927,3.9421,3.9421,3.9611,3.9613,0,0,0,0,0,0,0,0,0,0,0,3.9222,3.9223,3.9225,3.9271,3.9421,3.9421,3.961,3.9497,0,0,0,0,0,0,0,0,0,0,3.9351,3.9312,3.9223,3.9225,3.9272,3.942,3.9422,3.9492,3.9504,3.9542,0,3.9578,0,3.9598,3.9625,3.9626,0,0,0,3.9269,3.9301,3.9341,3.9225,3.9273,3.942,3.9352,3.9499,3.9513,3.9558,3.9581,3.9588,3.9602,3.9627,3.9628,3.9853,3.9854,0,0,3.9261,3.925,3.9332,3.9351,3.933,3.9348,3.9357,3.9507,3.953,3.9581,3.9592,3.9605,3.9628,3.9629,3.9852,3.9853,0,0,0,3.9237,3.9244,3.928,3.9343,3.937,3.9352,3.9363,3.9523,3.9536,3.9594,3.9607,3.9629,3.9631,3.9851,3.9852,3.9896,0,0,0,3.9232,3.923,3.9277,3.9271,3.9368,3.9449,3.9376,3.9526,3.9543,3.9606,3.9629,3.9633,3.985,3.9852,3.9893,3.9919,0,0,0,3.9212,3.9228,3.925,3.927,3.9335,3.9447,3.9469,3.953,3.9551,3.9626,3.9634,3.9849,3.9851,3.9889,3.9913,3.9974,0,0,0,3.9187,3.9287,3.9251,3.9366,3.9334,3.9474,3.9468,3.9572,3.9642,3.963,3.985,3.9852,3.9888,3.991,3.9971,4.0024,4.0045,0,0,3.9307,3.9301,3.937,3.9342,3.9485,3.9451,3.96,3.9674,3.9691,3.9797,3.9803,3.9894,3.9913,3.9973,4.0168,4.0184,0,0,0,3.9404,3.9453,3.9493,3.956,3.9619,3.9672,3.9724,3.9751,3.9842,3.9744,3.9933,3.9944,3.998,4.0006,4.002,4.0051,3.9864,3.9864,3.9863,3.9557,3.9573,3.9688,3.9721,3.9785,3.9838,3.989,3.9935,3.9932,3.9976,4.0008,4.0124,4.0154,4.0165,4.0197,4.0037,4.0037,4.0038,4.0038,3.9733,3.9805,3.9798,3.9907,3.9922,4.0013,4.0065,4.006,4.0144,4.0102,4.0134,4.0086,4.0183,4.0211,4.0041,4.0041,4.004,4.004,4.004,3.9836,3.9873,3.9904,4.0,4.0072,4.0101,4.0183,4.0194,4.0204,4.0236,4.027,4.0269,4.0269,4.0251,4.0252,4.0252,4.0252,4.0253,4.0253,3.9929,3.9963,4.0032,4.0102,4.0144,4.0202,4.0253,4.0295,4.0343,4.0344,4.0344,4.0336,4.019,4.0152,4.0259,4.0258,4.0257,4.0257,4.0256,4.0102,4.0064,4.017,4.0213,4.0294,4.0363,4.0375,4.0459,4.0494,4.0534,4.0518,4.0408,4.0402,4.0391,4.036,4.0515,4.0515,4.0515,4.0515,4.0188,4.0186,4.0296,4.0363,4.043,4.0451,4.0567,4.0606,4.0641,4.0663,4.0642,4.0602,4.059,4.0591,4.0576,4.0547,4.0746,4.0746,4.0746,4.0294,4.0299,4.0398,4.0432,4.0496,4.0549,4.0658,4.0733,4.0764,4.0756,4.068,4.0671,4.0606,4.0584,4.0576,4.0551,4.0499,0,0]}]]